Regional Weather Roundup
Issued by NWS Memphis, TN

Home | Current Version | Previous Version | Text Only | Print | Product List | Glossary On
Versions: 1 2 3 4 5 6 7 8 9 10 11 12 13 14 15 16 17 18 19 20 21 22 23 24 25 26 27 28 29 30 31 32 33 34 35 36 37 38 39 40 41 42 43 44 45 46 47 48 49 50
000
ASUS44 KMEG 161010
RWRMEG
MEMPHIS CWA HOURLY WEATHER ROUNDUP
NATIONAL WEATHER SERVICE MEMPHIS TN
400 AM CST SAT DEC 16 2017

...WEST TENNESSEE...

CITY           SKY/WX    TMP DP  RH WIND       PRES   REMARKS
MEMPHIS INTL   CLOUDY    36  27  69 S12       30.19F WCI  28
NWS MEMPHIS      N/A     36 N/A N/A MISG        N/A
JACKSON        CLOUDY    33  26  75 S9        30.20F WCI  25
COVINGTON      CLEAR     32  27  80 S7        30.19F WCI  26
SOMERVILLE     PTCLDY    34  27  75 S5        30.19F WCI  30
BOLIVAR        PTCLDY    30  25  80 SE5       30.20F WCI  25
LEXINGTON      CLEAR     30  25  80 CALM      30.21F
SELMER         PTCLDY    30  25  80 CALM      30.21F
SAVANNAH       PTCLDY    30  27  86 SE5       30.22F WCI  25
DYERSBURG      CLOUDY    34  27  75 S7        30.17F WCI  28
UNION CITY     CLEAR     32  27  80 S8        30.15F WCI  25
PARIS          CLEAR     32  27  80 S7        30.15F WCI  26
HUNTINGDON     CLEAR     34  27  75 SW5       30.16F WCI  30


...EASTERN ARKANSAS...

CITY           SKY/WX    TMP DP  RH WIND       PRES   REMARKS
JONESBORO      CLOUDY    34  30  85 SW7       30.16F WCI  28
WEST MEMPHIS   CLOUDY    31  28  89 S8        30.19F WCI  23
BATESVILLE     CLOUDY    36  28  73 S5        30.14F WCI  32
NEWPORT        CLOUDY    30  29  96 S9        30.16F WCI  22
WALNUT RIDGE   CLOUDY    31  28  89 S9        30.14F WCI  23
BLYTHEVILLE    CLEAR     33  28  81 S9        30.17F WCI  25
SEARCY         CLOUDY    25  25 100 CALM      30.17F
STUTTGART      CLOUDY    33  28  81 S9        30.20F WCI  25
PINE BLUFF     CLOUDY    32  28  85 S6        30.21S WCI  26
MONTICELLO     CLOUDY    38  29  70 S6        30.23S WCI  33


...NORTH MISSISSIPPI...

CITY           SKY/WX    TMP DP  RH WIND       PRES   REMARKS
TUPELO         CLOUDY    27  23  85 CALM      30.26S
OXFORD         CLOUDY    30  25  80 CALM      30.25F
BATESVILLE     CLOUDY    25  23  93 CALM      30.25F
TUNICA           N/A    N/A N/A N/A S8        30.23F
CLARKSDALE     CLOUDY    32  28  86 S6        30.23F WCI  26
CORINTH        CLOUDY    27  23  86 CALM      30.23F
GREENWOOD      CLOUDY    27  24  89 CALM      30.25F
COLUMBUS       CLOUDY    23  22  96 CALM      30.27F
STARKVILLE     CLOUDY    25  23  93 CALM      30.28S
GOLDEN TRIANGL CLOUDY    24  22  91 E3        30.27F


...SOUTHEAST MISSOURI...

CITY           SKY/WX    TMP DP  RH WIND       PRES   REMARKS
KENNETT        CLEAR     34  30  86 S8        30.13F WCI  27
MALDEN         CLEAR     34  30  86 S6        30.15S WCI  29
WEST PLAINS    CLOUDY    31  25  78 S5        30.07F WCI  26
POPLAR BLUFF   CLOUDY    31  28  89 SW3       30.13S
CAPE GIRARDEAU PTCLDY    30  26  85 S7        30.12F WCI  23


...NORTHWEST ALABAMA...

CITY           SKY/WX    TMP DP  RH WIND       PRES   REMARKS
MUSCLE SHOALS  CLOUDY    23  20  88 SE5       30.26F WCI  17


...MIDDLE TENNESSEE...

CITY           SKY/WX    TMP DP  RH WIND       PRES   REMARKS
NASHVILLE      CLOUDY    30  23  75 S3        30.22S
CLARKSVILLE    CLEAR     31  23  72 S6        30.18S WCI  25
COLUMBIA       PTCLDY    28  25  86 CALM      30.21S


...WESTERN KENTUCKY...

CITY           SKY/WX    TMP DP  RH WIND       PRES   REMARKS
PADUCAH        PTCLDY    34  25  69 S6        30.13F WCI  29
FORT CAMPBELL  CLEAR     33  25  73 S10       30.16F WCI  24


...CENTRAL ARKANSAS...

CITY           SKY/WX    TMP DP  RH WIND       PRES   REMARKS
LITTLE ROCK    CLOUDY    28  28 100 SW3       30.19S


SKY/WX REPORTED AS FAIR MEANS FEW OR NO CLOUDS BELOW
12 THOUSAND FEET.





USA.gov is the U.S. government's official web portal to all federal, state and local government web resources and services.